Погода в Медведеве

Россия / Архангельская область     60°59′51″N   38°33′08″E
темп.,
°C
ветер,
м/с
пор.,
м/с
влажн.,
%
обл.,
%
осадки,
мм/ч
давл.,
гПа
погр.,
м
19 апреля, пн
пн1900:00−1всв29794 0.0 1034178
03:00−2всв26825 0.0 1034128
06:00−2всв28845 0.0 1034186
09:00+4в36580 0.0 1034687
12:00+7вюв35445 0.0 10331330
15:00+8вюв3540100 0.0 10331533
18:00+6вюв255277 0.0 1032299
21:00+1в22730 0.0 103238
20 апреля, вт
вт2000:00−1вюв27810 0.0 1033127
03:00−2юв25850 0.0 1033109
06:00−1вюв28805 0.0 1032217
09:00+4юв47490 0.0 1031808
12:00+7юв47370 0.0 10301319
15:00+9юв47345 0.0 10271527
18:00+7юв38445 0.0 1025766
21:00+2вюв296975 0.0 1025166
21 апреля, ср
ср2100:00+1вюв2117411 0.0 1023267
03:000в31179100 0.0 1021275
06:000в41372100 0.0 1017456
09:00+4в51253100 0.0 1013804
12:00+4вюв51369100 0.4 10101155
15:00+3вюв51190100 1.3 1007979
18:00+1вюв41297100 0.8 1005638
21:00+1вюв41298100 3.1 1002800
22 апреля, чт
чт2200:00+2юв4998100 1.8 1001799
03:00+1ю51097100 2.7 1003754
06:00+1ю51197100 0.6 1004839
09:00+2ю41091100 0.8 1006821
12:00+2ююв3897100 0.3 1007442
15:00+2ююз4997100 0.8 1008498
18:00+3юз4993100 0.3 1010730
21:00+2юз41094100 0.3 1013662
23 апреля, пт
пт2300:00+2юз399597 0.0 1014509
03:00+2ю2597100 0.0 1015186
06:000ююв25965 0.0 1016124
09:00+6юв478199 0.0 1015432
12:00+11ююв597593 0.0 10141015
15:00+13ююв51171100 0.3 10121357
18:00+12ююв51177100 0.1 1012973
21:00+9юв5148869 0.1 1011633